Starlink 4758

operational
NORAD ID: 53820 Int'l Des: 2022-114 Owner: SPXS Country: US Constellation: starlink
LEOCIRCULAR

Starlink 4758について

説明を読み込み中...

リアルタイム位置

3D地球を読み込み中...

次回通過

高度履歴

Altitude vs Time

uPlot chart will show altitude changes over time

軌道要素

1 53820U 22114C 25258.05662520 -.00000031 00000-0 16157-4 0 9995
2 53820 53.2210 12.7892 0001412 90.8157 269.2997 15.08840024166313
Epoch: Sep 15, 2025 • Age: 18 hours

現在のステータス

高度 543.3 km
速度 7.59 km/s
衛星直下点 -12.39°S, 91.89°W
打ち上げ日 Sep 19, 2022
運用期間 2.9 years
タイプ internet

技術仕様

分類 Payload
質量 305.00 kg
乾燥質量 290.00 kg
総質量 305.00 kg
長さ 0.20 m
直径 2.80 m
スパン 9.00 m
形状 Box + pan
製造者 SPXS
バスタイプ Starlink
フェーズステータス In Orbit
所有者/国 SPXS/US

大規模コンステレーション

Loading constellations...